sat.trackr.live / text

‹ back to catalog

STARLINK-33750

NORAD 63513 · 2025-071W

PAYLOAD ACTIVE UNKNOWN

§ Identity

Operator
Country
US
Launch date
2025-04-07
Launch site
AFWTR
Launch vehicle
Mass (kg)
RCS (m²)

Purposes: comms

External: N2YO · Heavens-Above · Gunter

§ Orbital elements

Epoch: 2026-05-24T23:47:59.239104Z

Period
94.01 min
Inclination
53.1600°
Eccentricity
0.0001502
Mean motion
15.31716869 rev/d
Perigee alt
469.7 km
Apogee alt
471.7 km
Semi-major
6,848.8 km
B*
5.0463e-4
RAAN
145.3630°
Arg perigee
73.7599°
Mean anomaly
286.3568°
Rev number
6,443

§ Raw data

STARLINK-337501 63513U 25071W   26144.99165786  .00015335  00000+0  50463-3 0  99982 63513  53.1600 145.3630 0001502  73.7599 286.3568 15.31716869 64437

JSON: /api/v1/satellites/63513 · /tle

For live sub-satellite position, see the globe view (requires WebGL).

§ Visibility from observer

Set your observer location to see the next 7 days of passes ≥ 10°. The values pass through the URL so the page stays shareable.

No JS? Fill the form by hand. The geolocation button needs JavaScript.